Mumbai, India

3:00 PM IST on July 22, 2017 (GMT +0530)
Chhatrapati Shivaji International

Weather History for VABB - April, 2013

Change the Weather History Date:

Tuesday, April 23, 2013

  Actual Average Record
Temperature  
Mean Temperature 81 °F -  
Max Temperature 90 °F 89 °F 100 °F (2014)
Min Temperature 72 °F 78 °F 72 °F (2013)
Cooling Degree Days 16    
Growing Degree Days 31 (Base 50)    
Moisture  
Dew Point 73 °F    
Average Humidity 69    
Maximum Humidity 83    
Minimum Humidity 55    
Precipitation  
Precipitation 0.00 in - - ()
Sea Level Pressure  
Sea Level Pressure 29.83 in    
Wind  
Wind Speed 5 mph ()    
Max Wind Speed 14 mph    
Max Gust Speed 21 mph    
Visibility 2.8 miles    
Events      
Averages and records for this station are not official NWS values.
T = Trace of Precipitation, MM = Missing Value Source: Averaged Metar Reports

Daily Weather History Graph

Daily Weather History Graph

Search for Another Location

Airport or City:

Trip Planner

Search our weather history database for the weather conditions in past years. The results will help you decide how hot, cold, wet, or windy it might be!

Date:

Astronomy

Apr. 23, 2013 Rise Set
Actual Time 6:15 AM IST 6:58 PM IST
Civil Twilight 5:53 AM IST 7:21 PM IST
Nautical Twilight 5:26 AM IST 7:47 PM IST
Astronomical Twilight 4:59 AM IST 8:14 PM IST
Moon 4:40 PM IST (4/23) 4:06 AM IST (4/23)
Length of Visible Light 13h 27m
Length of Day
12h 42m
Waxing Gibbous, 91% of the Moon is Illuminated
Apr 23
Waxing Gibbous
Apr 26
Full
May 2
Last Quarter
May 10
New
May 18
First Quarter

Hourly Weather History & Observations

Time (IST) Temp. Heat Index Dew Point Humidity Pressure Visibility Wind Dir Wind Speed Gust Speed Precip Events Conditions
12:10 AM 82.4 °F 88.2 °F 73.4 °F 74% 29.86 in 2.5 mi NE 3.5 mph - N/A   Haze
12:40 AM 82.4 °F 88.2 °F 73.4 °F 74% 29.80 in 2.5 mi ESE 3.5 mph - N/A   Haze
1:40 AM 82.4 °F 88.2 °F 73.4 °F 74% 29.80 in 3.1 mi Calm Calm - N/A   Haze
2:10 AM 80.6 °F 84.6 °F 71.6 °F 74% 29.77 in 3.1 mi SE 4.6 mph - N/A   Haze
2:30 AM 77 °F - 72 °F 79% 29.78 in 1 mi Calm Calm - -   Haze
2:40 AM 80.6 °F 84.6 °F 71.6 °F 74% 29.77 in 3.1 mi SSE 3.5 mph - N/A   Haze
3:10 AM 80.6 °F 84.6 °F 71.6 °F 74% 29.74 in 3.1 mi Calm Calm - N/A   Haze
3:40 AM 80.6 °F 84.6 °F 71.6 °F 74% 29.74 in 3.1 mi Calm Calm - N/A   Haze
4:10 AM 80.6 °F 84.6 °F 71.6 °F 74% 29.74 in 3.1 mi Calm Calm - N/A   Haze
4:40 AM 80.6 °F 84.6 °F 71.6 °F 74% 29.77 in 3.1 mi WSW 4.6 mph - N/A   Haze
5:10 AM 80.6 °F 84.6 °F 71.6 °F 74% 29.77 in 3.1 mi Calm Calm - N/A   Haze
5:30 AM 75 °F - 71 °F 83% 29.78 in 1 mi Calm Calm - -   Haze
5:40 AM 80.6 °F 84.6 °F 71.6 °F 74% 29.80 in 3.1 mi WNW 3.5 mph - N/A   Haze
6:10 AM 80.6 °F 84.6 °F 71.6 °F 74% 29.80 in 3.1 mi NW 4.6 mph - N/A   Haze
6:40 AM 82.4 °F 87.2 °F 71.6 °F 70% 29.83 in 3.1 mi NNW 5.8 mph - N/A   Haze
7:10 AM 82.4 °F 88.2 °F 73.4 °F 74% 29.83 in 3.1 mi WNW 3.5 mph - N/A   Haze
7:40 AM 82.4 °F 88.2 °F 73.4 °F 74% 29.83 in 3.1 mi WNW 4.6 mph - N/A   Haze
8:10 AM 82.4 °F 88.2 °F 73.4 °F 74% 29.86 in 3.1 mi West 5.8 mph - N/A   Haze
8:30 AM 83 °F - 74 °F 68% 29.86 in 1 mi Calm Calm - -   Smoke
8:40 AM 84.2 °F 90.9 °F 73.4 °F 70% 29.86 in 3.1 mi North 4.6 mph - N/A   Haze
9:10 AM 86.0 °F 93.4 °F 73.4 °F 66% 29.89 in 3.1 mi North 4.6 mph - N/A   Haze
9:40 AM 86.0 °F 91.8 °F 71.6 °F 62% 29.89 in 3.1 mi Calm Calm - N/A   Smoke
10:10 AM 87.8 °F 93.8 °F 71.6 °F 58% 29.89 in 3.1 mi North 3.5 mph - N/A   Smoke
10:40 AM 87.8 °F 97.6 °F 75.2 °F 66% 29.89 in 3.1 mi West 9.2 mph - N/A   Smoke
11:10 AM 87.8 °F 97.6 °F 75.2 °F 66% 29.89 in 3.1 mi West 9.2 mph - N/A   Smoke
11:30 AM 89 °F - 75 °F 56% 29.87 in 1 mi West 6.9 mph - -   Smoke
11:40 AM 87.8 °F 97.6 °F 75.2 °F 66% 29.89 in 3.1 mi West 12.7 mph - N/A   Smoke
12:10 PM 86.0 °F 95.1 °F 75.2 °F 70% 29.86 in 3.1 mi West 11.5 mph - N/A   Smoke
12:40 PM 86.0 °F 95.1 °F 75.2 °F 70% 29.86 in 3.1 mi West 11.5 mph - N/A   Smoke
1:10 PM 87.8 °F 97.6 °F 75.2 °F 66% 29.83 in 3.1 mi West 12.7 mph - N/A   Smoke
1:40 PM 87.8 °F 97.6 °F 75.2 °F 66% 29.83 in 3.1 mi West 12.7 mph - N/A   Smoke
2:10 PM 87.8 °F 97.6 °F 75.2 °F 66% 29.83 in 3.1 mi West 11.5 mph - N/A   Partly Cloudy
2:30 PM 90 °F - 76 °F 55% 29.82 in 1 mi WNW 6.9 mph - -   Smoke
2:40 PM 87.8 °F 97.6 °F 75.2 °F 66% 29.80 in 3.1 mi West 12.7 mph - N/A   Smoke
3:10 PM 87.8 °F 97.6 °F 75.2 °F 66% 29.80 in 3.7 mi West 11.5 mph - N/A   Partly Cloudy
3:40 PM 87.8 °F 97.6 °F 75.2 °F 66% 29.80 in 3.7 mi West 9.2 mph 20.7 mph N/A   Partly Cloudy
4:10 PM 87.8 °F 95.6 °F 73.4 °F 62% 29.80 in 3.7 mi WNW 8.1 mph 19.6 mph N/A   Partly Cloudy
4:40 PM 87.8 °F 95.6 °F 73.4 °F 62% 29.77 in 3.7 mi WNW 8.1 mph 19.6 mph N/A   Partly Cloudy
5:10 PM 87.8 °F 93.8 °F 71.6 °F 58% 29.77 in 3.7 mi WNW 13.8 mph - N/A   Partly Cloudy
5:30 PM 87 °F - 74 °F 57% 29.79 in 1 mi NW 5.8 mph - -   Smoke
5:40 PM 86.0 °F 91.8 °F 71.6 °F 62% 29.77 in 3.7 mi WNW 13.8 mph - N/A   Partly Cloudy
6:10 PM 86.0 °F 93.4 °F 73.4 °F 66% 29.80 in 3.7 mi West 13.8 mph - N/A   Partly Cloudy
6:40 PM 84.2 °F 90.9 °F 73.4 °F 70% 29.80 in 3.7 mi West 13.8 mph - N/A   Partly Cloudy
7:10 PM 84.2 °F 90.9 °F 73.4 °F 70% 29.80 in 3.7 mi WNW 11.5 mph - N/A   Partly Cloudy
7:40 PM 84.2 °F 90.9 °F 73.4 °F 70% 29.83 in 3.7 mi WNW 10.4 mph - N/A   Partly Cloudy
8:30 PM 83 °F - 74 °F 68% 29.84 in 1 mi NW 5.8 mph - -   Smoke
8:40 PM 84.2 °F 90.9 °F 73.4 °F 70% 29.83 in 3.1 mi WNW 5.8 mph - N/A   Haze
9:10 PM 84.2 °F 90.9 °F 73.4 °F 70% 29.86 in 2.5 mi NW 5.8 mph - N/A   Haze
9:40 PM 84.2 °F 90.9 °F 73.4 °F 70% 29.86 in 2.5 mi West 6.9 mph - N/A   Haze
10:10 PM 84.2 °F 90.9 °F 73.4 °F 70% 29.89 in 2.5 mi NNW 3.5 mph - N/A   Haze
10:40 PM 82.4 °F 88.2 °F 73.4 °F 74% 29.89 in 2.5 mi NW 5.8 mph - N/A   Haze
11:10 PM 82.4 °F 88.2 °F 73.4 °F 74% 29.89 in 2.5 mi West 6.9 mph - N/A   Haze
11:30 PM 82 °F - 74 °F 72% 29.89 in 1 mi NW 3.5 mph - -   Haze
11:40 PM 82.4 °F 88.2 °F 73.4 °F 74% 29.89 in 2.5 mi WNW 5.8 mph - N/A   Haze